Location: ??
(35.5090°N, 139.6783°E)
Time: 02:33:33
(UTC+00:00)

PSLV R/B - Pass Details

Date: 08 November 2025
Orbit: 561 x 589 km, 98.0° (Epoch: 09 December)

Event Time Altitude Azimuth Distance (km) Brightness Sun altitude
Rises 09:08:01 0° 162° (SSE) 2,783 6.8 -18.2°
Reaches altitude 10° 09:10:11 10° 161° (SSE) 1,884 5.9 -18.6°
Maximum altitude 09:14:14 74° 77° (ENE) 600 3.2 -19.4°
Drops below altitude 10° 09:18:18 10° 352° (N) 1,879 6.0 -20.3°
Sets 09:20:27 0° 350° (N) 2,776 7.0 -20.7°
